Total_Precipitation_Accumulation
0.04 0.03 0.05 0.10 0.18 0.26 0.35 0.37 0.38 0.55 0.61 0.51 0.52 0.55 0.57 0.68 0.97 1.67 1.11 0.69 0.47 0.36 0.39 0.43 0.47 0.45 0.44 0.39 0.41 0.36 0.34 0.38 0.42 0.41 0.47 0.52 0.46 0.46 0.47 0.54 0.67 0.87 0.99 1.01 1.07 1.12 1.13 1.11 0.96
0.05 0.05 0.07 0.10 0.20 0.33 0.41 0.35 0.43 0.55 0.57 0.59 0.58 0.66 0.66 0.63 0.58 0.61 0.71 0.58 0.38 0.33 0.39 0.41 0.51 0.52 0.48 0.42 0.42 0.41 0.40 0.41 0.47 0.52 0.55 0.61 0.55 0.53 0.57 0.63 0.71 0.92 1.06 1.22 1.22 1.21 1.18 1.14 0.99
0.06 0.07 0.08 0.09 0.21 0.38 0.44 0.44 0.50 0.55 0.59 0.69 0.74 0.82 0.79 0.80 0.65 0.75 0.80 0.57 0.40 0.39 0.41 0.43 0.48 0.51 0.56 0.56 0.54 0.54 0.50 0.51 0.55 0.62 0.67 0.75 0.71 0.65 0.67 0.73 0.78 0.90 0.99 1.25 1.47 1.39 1.30 1.21 1.10
0.06 0.06 0.07 0.12 0.25 0.28 0.35 0.48 0.53 0.58 0.68 0.68 0.62 0.81 0.91 0.89 0.77 0.79 0.82 0.64 0.51 0.54 0.55 0.47 0.55 0.57 0.69 0.73 0.70 0.69 0.64 0.61 0.67 0.71 0.73 0.80 0.80 0.78 0.84 0.89 0.93 1.03 1.08 1.17 1.37 1.53 1.49 1.38 1.45
0.04 0.06 0.10 0.20 0.26 0.27 0.31 0.49 0.58 0.63 0.68 0.67 0.76 0.96 1.09 1.19 1.02 0.94 0.90 0.78 0.76 0.83 0.80 0.64 0.66 0.65 0.75 0.74 0.77 0.75 0.74 0.71 0.77 0.80 0.78 0.82 0.80 0.80 0.94 1.09 1.12 1.19 1.25 1.24 1.26 1.36 1.46 1.45 1.68
0.05 0.06 0.16 0.26 0.32 0.33 0.34 0.43 0.54 0.68 0.78 0.73 0.88 1.11 1.46 1.58 1.49 1.30 1.01 0.89 0.86 1.00 0.94 0.72 0.71 0.71 0.83 0.86 0.84 0.81 0.82 0.84 0.91 0.93 0.88 0.85 0.84 0.89 1.01 1.15 1.24 1.30 1.28 1.22 1.30 1.31 1.38 1.61 1.80
0.04 0.06 0.14 0.23 0.32 0.37 0.37 0.47 0.65 0.80 0.95 0.89 0.97 1.23 1.63 1.71 1.51 1.33 1.15 1.05 0.95 1.04 1.08 0.93 0.94 0.91 0.92 0.96 0.95 1.00 0.96 1.00 1.06 1.04 1.07 1.00 0.96 1.07 1.19 1.23 1.29 1.31 1.30 1.21 1.20 1.29 1.24 1.39 1.63
0.03 0.08 0.15 0.25 0.31 0.32 0.37 0.51 0.74 0.85 0.96 1.01 1.16 1.27 1.81 1.87 1.63 1.47 1.43 1.45 1.52 1.75 1.78 1.52 1.41 1.35 1.23 1.12 1.03 1.03 1.03 1.13 1.26 1.20 1.18 1.19 1.18 1.21 1.33 1.30 1.33 1.28 1.19 1.17 1.15 1.27 1.31 1.28 1.31
0.02 0.07 0.15 0.22 0.29 0.32 0.42 0.68 0.73 0.81 1.00 1.01 1.04 1.08 1.49 1.62 1.65 1.84 1.91 2.12 2.28 2.50 2.57 2.16 1.73 1.57 1.76 1.54 1.21 1.24 1.17 1.20 1.29 1.29 1.28 1.36 1.60 1.76 1.79 1.58 1.67 1.56 1.42 1.33 1.30 1.28 1.24 1.20 1.22
0.03 0.08 0.13 0.20 0.28 0.32 0.46 0.75 0.82 0.82 0.95 0.99 0.98 1.04 1.26 1.59 1.83 2.06 2.41 2.97 2.90 2.78 2.79 2.48 1.97 2.07 2.29 1.93 1.76 1.66 1.46 1.41 1.39 1.50 1.55 1.69 2.17 2.30 2.01 2.09 2.04 1.99 1.85 1.69 1.62 1.55 1.41 1.27 1.21
0.05 0.09 0.13 0.20 0.36 0.40 0.51 0.75 0.90 1.04 1.10 1.10 1.17 1.34 1.55 1.84 1.92 2.08 2.51 3.06 3.20 2.88 2.60 2.27 2.19 2.24 2.45 2.40 2.26 2.15 2.06 2.08 2.11 2.14 2.18 2.36 2.46 2.33 2.20 2.49 2.39 2.33 2.24 2.14 2.16 1.96 1.65 1.55 1.55
0.06 0.08 0.13 0.19 0.34 0.44 0.58 0.82 0.98 1.20 1.31 1.29 1.29 1.38 1.76 1.90 1.93 2.27 2.87 2.81 2.80 2.77 2.64 2.58 2.61 2.48 2.65 2.98 2.91 2.76 2.70 2.61 2.54 2.51 2.38 2.72 2.89 2.78 2.78 2.87 2.83 2.98 2.97 2.92 2.59 2.35 2.07 1.90 1.69
0.08 0.09 0.12 0.19 0.39 0.47 0.54 0.81 0.82 0.99 1.14 1.16 1.18 1.27 1.61 1.92 2.18 2.63 2.97 3.02 2.98 3.03 2.85 2.81 2.92 2.88 2.98 3.36 3.48 3.20 3.15 2.95 2.77 2.74 2.79 2.91 2.98 3.00 3.12 3.10 3.27 3.26 3.19 3.02 2.78 2.41 2.36 2.15 1.94
0.09 0.11 0.16 0.24 0.41 0.49 0.49 0.61 0.69 0.90 0.98 1.09 1.33 1.38 1.59 1.92 2.38 2.75 2.97 3.13 3.26 3.29 3.06 2.95 3.03 2.98 3.01 3.21 3.39 3.39 3.32 3.39 3.27 3.06 3.04 3.07 3.13 3.24 3.26 3.28 3.25 3.11 2.99 3.01 2.93 2.73 2.65 2.47 2.28
0.12 0.16 0.24 0.31 0.39 0.41 0.42 0.59 0.73 0.81 0.90 1.00 1.33 1.62 1.78 2.21 2.50 2.67 2.86 3.27 3.45 3.55 3.47 3.33 3.34 3.45 3.34 3.32 3.39 3.33 3.35 3.63 3.62 3.55 3.49 3.28 3.21 3.28 3.34 3.40 3.31 3.17 3.11 3.15 3.04 2.97 2.88 2.71 2.56
0.20 0.22 0.28 0.34 0.39 0.39 0.43 0.75 0.78 0.85 0.93 1.02 1.07 1.47 1.90 2.23 2.17 2.18 2.53 3.14 3.80 4.03 3.92 3.53 3.26 3.52 3.57 3.59 3.62 3.66 3.66 3.82 3.78 3.63 3.71 3.49 3.49 3.41 3.39 3.27 3.11 3.06 3.08 3.29 3.32 3.20 3.19 3.01 2.90
0.27 0.26 0.29 0.37 0.41 0.40 0.49 0.87 0.98 1.01 1.07 1.18 1.22 1.48 1.83 1.92 1.88 2.03 2.49 3.17 4.02 4.57 4.33 3.76 3.44 3.54 3.70 3.69 3.83 4.06 4.19 4.15 3.98 3.83 3.90 3.75 3.79 3.69 3.57 3.60 3.53 3.39 3.45 3.49 3.25 3.32 3.40 3.39 3.31
0.24 0.25 0.34 0.41 0.42 0.43 0.55 0.82 0.97 1.15 1.18 1.40 1.51 1.58 1.71 1.82 1.81 1.99 2.48 3.20 3.99 4.68 4.57 4.09 3.82 4.02 4.03 3.92 4.01 4.17 4.28 4.28 4.34 4.35 4.29 4.14 4.08 4.16 4.26 4.25 4.16 3.97 3.83 3.80 3.89 3.85 3.58 3.39 3.38
0.21 0.26 0.32 0.40 0.40 0.46 0.55 0.78 0.90 1.07 1.14 1.29 1.44 1.48 1.45 1.54 1.75 2.11 2.57 3.27 3.73 3.90 3.98 4.12 4.12 4.19 4.23 4.20 4.21 4.41 4.59 4.63 4.60 4.72 4.74 4.56 4.50 4.65 4.94 4.96 4.81 4.51 4.20 4.02 4.02 4.01 3.78 3.47 3.32
0.24 0.29 0.34 0.41 0.38 0.41 0.58 0.80 0.95 1.10 1.18 1.25 1.32 1.35 1.35 1.39 1.65 2.10 2.55 3.00 3.30 3.65 3.84 4.04 4.05 4.25 4.52 4.90 5.41 5.69 5.79 5.68 5.51 5.38 5.29 5.15 5.04 5.12 5.23 5.29 4.95 4.59 4.41 4.16 3.92 3.87 3.71 3.45 3.40
0.24 0.26 0.35 0.45 0.48 0.48 0.65 1.02 1.10 1.20 1.34 1.46 1.47 1.53 1.60 1.47 1.65 1.98 2.20 2.58 2.87 3.25 3.59 3.85 4.18 4.61 5.12 5.78 6.56 6.86 6.59 6.18 5.99 5.64 5.55 5.32 5.11 5.08 5.17 4.89 4.65 4.44 4.25 4.06 3.84 3.80 3.76 3.45 3.33
0.21 0.18 0.25 0.33 0.46 0.56 0.56 1.11 1.39 1.52 1.67 1.78 1.60 1.54 1.59 1.59 1.60 1.76 2.02 2.31 2.50 2.88 3.36 3.81 4.37 5.00 5.65 6.26 6.72 6.90 6.79 6.50 6.20 5.76 5.36 4.96 4.65 4.46 4.35 4.22 4.00 3.90 3.77 3.61 3.45 3.47 3.50 3.38 3.13
0.14 0.15 0.19 0.24 0.33 0.50 0.53 0.88 1.47 1.72 1.83 1.87 1.69 1.61 1.55 1.52 1.45 1.60 1.81 2.07 2.37 2.81 3.30 3.78 4.29 5.02 5.52 6.07 6.48 6.69 6.69 6.57 6.17 5.48 4.83 4.40 4.06 3.80 3.53 3.34 3.24 3.23 3.17 2.97 2.81 2.79 2.83 2.81 2.75
0.13 0.16 0.21 0.28 0.36 0.59 0.53 0.81 1.53 1.96 2.04 1.92 1.82 1.76 1.61 1.57 1.62 1.63 1.71 1.88 2.32 2.74 3.26 3.63 3.96 4.68 5.38 5.88 6.24 6.52 6.50 6.26 5.64 4.93 4.35 3.98 3.66 3.40 3.14 2.98 2.83 2.77 2.67 2.50 2.36 2.33 2.36 2.39 2.40
0.15 0.26 0.51 0.66 0.73 0.71 0.53 0.86 1.56 1.74 1.74 1.74 1.60 1.53 1.59 1.56 1.54 1.55 1.76 1.89 2.37 2.77 3.09 3.37 3.62 4.04 4.56 5.04 5.35 5.54 5.58 5.36 4.93 4.49 4.01 3.64 3.39 3.11 2.79 2.46 2.30 2.22 2.22 2.18 2.11 2.07 2.07 2.11 2.12
0.14 0.25 0.60 0.85 0.89 0.83 0.83 1.42 1.93 1.68 1.62 1.65 1.58 1.40 1.42 1.51 1.49 1.49 1.72 1.95 2.11 2.33 2.59 2.90 3.12 3.39 3.67 3.93 4.19 4.17 4.15 4.14 3.94 3.57 3.15 2.86 2.57 2.39 2.23 2.01 1.88 1.86 1.88 1.87 1.86 1.80 1.74 1.78 1.90
0.14 0.21 0.26 0.47 0.55 0.82 1.21 1.61 2.00 1.88 1.81 1.61 1.51 1.42 1.42 1.41 1.44 1.52 1.71 1.85 1.92 2.05 2.24 2.42 2.51 2.71 2.79 2.78 2.79 2.87 2.86 2.90 2.86 2.71 2.45 2.13 1.86 1.71 1.66 1.63 1.60 1.47 1.48 1.55 1.58 1.56 1.55 1.62 1.65
0.14 0.19 0.28 0.58 0.85 1.09 1.33 1.93 2.41 2.35 2.13 1.84 1.58 1.43 1.30 1.31 1.38 1.49 1.63 1.80 1.90 1.91 2.07 2.16 2.10 2.13 2.19 2.22 2.15 2.08 2.15 2.21 2.22 2.16 2.01 1.82 1.61 1.45 1.37 1.35 1.32 1.22 1.19 1.26 1.36 1.38 1.45 1.55 1.52
0.18 0.23 0.31 0.55 0.70 1.17 1.61 2.25 2.29 2.36 2.22 2.06 1.94 1.59 1.39 1.39 1.43 1.55 1.57 1.60 1.62 1.66 1.71 1.76 1.76 1.78 1.78 1.78 1.81 1.79 1.75 1.73 1.75 1.79 1.75 1.61 1.48 1.35 1.27 1.18 1.17 1.17 1.08 1.06 1.15 1.16 1.22 1.37 1.40
0.21 0.26 0.35 0.67 0.80 0.94 1.42 2.22 1.91 2.24 2.35 2.21 2.05 1.71 1.57 1.55 1.58 1.63 1.58 1.47 1.48 1.59 1.63 1.62 1.60 1.56 1.57 1.61 1.66 1.71 1.56 1.48 1.50 1.52 1.51 1.40 1.35 1.29 1.22 1.15 1.12 1.08 1.01 0.99 1.00 0.98 1.02 1.14 1.18